Home   Weather   Kingston   Past weeks

Flag for Norfolk Island Past Weather in Kingston, Norfolk Island — Yesterday and Last 2 Weeks

Now
64 °F

Overcast.


Feels Like: 64 °F
Forecast: 65 / 70 °F
Wind: 8 mph from North

Location: Norfolk Island Airport

Current Time: Oct 1, 2016 at 12:35:57 AM

Latest Report: Oct 1, 2016 at 12:00 AM


Visibility: N/A

Pressure: 30.01 "Hg

Humidity: 64%

Dew Point: 52 °F

Location of KingstonLocation

Past Weather in Kingston — Graph

°F

Kingston Temperature Yesterday

Maximum temperature yesterday: 68 °F (at 10:00 AM)
Minimum temperature yesterday: 59 °F (at 1:30 AM)
Average temperature yesterday: 64 °F

High & Low Weather Summary for the Past Weeks

 TemperatureHumidityPressure
High72 °F (Sep 23, 11:30 AM)100% (Sep 20, 8:00 AM)30.24 "Hg (Sep 20, 8:00 AM)
Low57 °F (Sep 28, 4:00 PM)52% (Sep 29, 12:00 AM)29.56 "Hg (Sep 26, 2:00 PM)
Average65 °F76%29.87 "Hg
* Reported Sep 15 11:00 PM — Sep 30 11:00 PM, Kingston, Weather by CustomWeather, © 2016

Note: Actual official high and low records may vary slightly from our data, if they occured in-between our weather recording intervals... More about our weather records

Advertising

Kingston Weather History for the Previous 24 Hours

Scroll right to see more
 ConditionsComfort  
Time TempWeatherWind HumidityBarometerVisibility
11:00 PM
Fri, Sep 30
63 °FOvercast.7 mph73%30.01 "HgN/A
10:30 PM63 °FClear.5 mph73%30.01 "HgN/A
10:00 PM63 °FClear.6 mph73%30.01 "HgN/A
9:30 PM63 °FClear.5 mph73%30.01 "HgN/A
9:00 PM63 °FClear.5 mph77%30.01 "HgN/A
8:30 PM61 °FClear.2 mph83%30.04 "HgN/A
8:00 PM63 °FPassing clouds.5 mph77%30.01 "HgN/A
7:30 PM63 °FPassing clouds.1 mph77%30.04 "HgN/A
7:00 PM63 °FPartly cloudy.No wind73%30.01 "HgN/A
6:30 PM63 °FSprinkles. Mostly cloudy.5 mph77%29.98 "HgN/A
6:00 PM63 °FSprinkles. Passing clouds.6 mph77%30.01 "HgN/A
5:30 PM64 °FDrizzle. More clouds than sun.6 mph68%30.01 "HgN/A
5:00 PM64 °FScattered clouds.5 mph68%29.98 "HgN/A
4:00 PM66 °FPartly sunny.9 mph64%29.98 "HgN/A
3:30 PM66 °FPartly sunny.7 mph64%29.95 "HgN/A
3:00 PM66 °FPartly sunny.9 mph64%29.95 "HgN/A
2:30 PM66 °FPartly sunny.9 mph64%29.95 "HgN/A
2:00 PM68 °FPartly sunny.10 mph60%29.95 "HgN/A
1:30 PM68 °FPartly sunny.9 mph64%29.95 "HgN/A
1:00 PM68 °FBroken clouds.12 mph64%29.98 "HgN/A
12:30 PM68 °FBroken clouds.13 mph64%29.98 "HgN/A
12:00 PM68 °FScattered clouds.10 mph64%29.98 "HgN/A
11:30 AM68 °FScattered clouds.6 mph64%29.98 "HgN/A
11:00 AM66 °FPartly sunny.7 mph68%29.98 "HgN/A
10:30 AM66 °FScattered clouds.3 mph64%29.98 "HgN/A
10:00 AM68 °FScattered clouds.7 mph64%29.98 "HgN/A
9:00 AM66 °FScattered clouds.7 mph73%30.01 "HgN/A
8:30 AM64 °FScattered showers. Scattered clouds.7 mph78%29.98 "HgN/A
8:00 AM64 °FScattered clouds.6 mph78%29.98 "HgN/A
7:30 AM66 °FBroken clouds.5 mph73%29.98 "HgN/A
7:00 AM64 °FBroken clouds.1 mph78%29.98 "HgN/A
6:30 AM63 °FMore clouds than sun.1 mph88%29.98 "HgN/A
6:00 AM61 °FMore clouds than sun.No wind88%29.95 "HgN/A
5:00 AM59 °FPassing clouds.3 mph94%29.92 "HgN/A
4:30 AM59 °FPartly cloudy.5 mph88%29.92 "HgN/A
4:00 AM59 °FPassing clouds.5 mph88%29.92 "HgN/A
3:00 AM61 °FSprinkles. Passing clouds.7 mph83%29.89 "HgN/A
2:30 AM61 °FMostly cloudy.3 mph83%29.92 "HgN/A
2:00 AM61 °FPartly cloudy.5 mph77%29.92 "HgN/A
1:30 AM59 °FPassing clouds.5 mph82%29.92 "HgN/A
1:00 AM61 °FPassing clouds.5 mph77%29.92 "HgN/A
12:00 AM61 °FPassing clouds.7 mph77%29.92 "HgN/A
Weather by CustomWeather, © 2016

See weather overviewHow to use our weather pages